Back to catalog

TACSAT 6

AliveMilitaryVLEO
NORAD 39473·PAYLOAD·🇺🇸 United States

Launched Dec 6, 2013 from Vandenberg Space Force Base

Loading…

Next Passes (next 24 hours)

TLE

FreshSource: Space-Track

Epoch: Sep 13, 2026, 15:10 UTC

1 39473U 13072M   26256.63254080  .00806779  33621-3  12059-2 0  9992
2 39473 120.4450 148.3954 0014963 105.5051 254.7715 16.04123973133327

Track TACSAT 6 in real time with AllMySat

Download on the App Store